date,time,SUV Intensity [MED/Hr],UV Index,Daily total [MED],Since Last [MED]
13/04/2023,00:00:32,0.000,0.0,0.0,0.0
13/04/2023,00:01:33,0.000,0.0,0.0,0.0
13/04/2023,00:02:33,-0.001,0.0,0.0,0.0
13/04/2023,00:03:33,-0.001,0.0,0.0,0.0
13/04/2023,00:04:33,-0.000,0.0,0.0,0.0
13/04/2023,00:05:33,-0.001,0.0,0.0,0.0
13/04/2023,00:06:33,0.001,0.0,0.0,0.0
13/04/2023,00:07:33,-0.001,0.0,0.0,0.0
13/04/2023,00:08:33,0.000,0.0,0.0,0.0
13/04/2023,00:09:32,0.000,0.0,0.0,0.0
13/04/2023,00:10:33,-0.000,0.0,0.0,0.0
13/04/2023,00:11:33,-0.000,0.0,0.0,0.0
13/04/2023,00:12:33,0.001,0.0,0.0,0.0
13/04/2023,00:13:32,-0.000,0.0,0.0,0.0
13/04/2023,00:14:32,-0.000,0.0,0.0,0.0
13/04/2023,00:15:32,-0.000,0.0,0.0,0.0
13/04/2023,00:16:33,0.000,0.0,0.0,0.0
13/04/2023,00:17:32,0.001,0.0,0.0,0.0
13/04/2023,00:18:32,0.001,0.0,0.0,0.0
13/04/2023,00:19:32,0.000,0.0,0.0,0.0
13/04/2023,00:20:33,0.000,0.0,0.0,0.0
13/04/2023,00:21:32,0.001,0.0,0.0,0.0
13/04/2023,00:22:32,0.001,0.0,0.0,0.0
13/04/2023,00:23:33,0.001,0.0,0.0,0.0
13/04/2023,00:24:33,-0.000,0.0,0.0,0.0
13/04/2023,00:25:32,-0.000,0.0,0.0,0.0
13/04/2023,00:26:32,-0.000,0.0,0.0,0.0
13/04/2023,00:27:32,-0.001,0.0,0.0,0.0
13/04/2023,00:28:32,0.001,0.0,0.0,0.0
13/04/2023,00:29:32,-0.000,0.0,0.0,0.0
13/04/2023,00:30:33,-0.001,0.0,0.0,0.0
13/04/2023,00:31:32,0.001,0.0,0.0,0.0
13/04/2023,00:32:32,-0.000,0.0,0.0,0.0
13/04/2023,00:33:32,-0.001,0.0,0.0,0.0
13/04/2023,00:34:32,-0.000,0.0,0.0,0.0
13/04/2023,00:35:33,-0.000,0.0,0.0,0.0
13/04/2023,00:36:33,-0.001,0.0,0.0,0.0
13/04/2023,00:37:33,-0.001,0.0,0.0,0.0
13/04/2023,00:38:32,-0.000,0.0,0.0,0.0
13/04/2023,00:39:33,-0.000,0.0,0.0,0.0
13/04/2023,00:40:33,-0.000,0.0,0.0,0.0
13/04/2023,00:41:32,-0.001,0.0,0.0,0.0
13/04/2023,00:42:32,-0.000,0.0,0.0,0.0
13/04/2023,00:43:32,-0.000,0.0,0.0,0.0
13/04/2023,00:44:33,-0.000,0.0,0.0,0.0
13/04/2023,00:45:32,0.000,0.0,0.0,0.0
13/04/2023,00:46:33,0.000,0.0,0.0,0.0
13/04/2023,00:47:33,0.000,0.0,0.0,0.0
13/04/2023,00:48:33,0.000,0.0,0.0,0.0
13/04/2023,00:49:33,0.001,0.0,0.0,0.0
13/04/2023,00:50:32,0.000,0.0,0.0,0.0
13/04/2023,00:51:33,0.000,0.0,0.0,0.0
13/04/2023,00:52:32,-0.000,0.0,0.0,0.0
13/04/2023,00:53:32,-0.001,0.0,0.0,0.0
13/04/2023,00:54:32,-0.001,0.0,0.0,0.0
13/04/2023,00:55:33,-0.000,0.0,0.0,0.0
13/04/2023,00:56:33,0.000,0.0,0.0,0.0
13/04/2023,00:57:33,-0.000,0.0,0.0,0.0
13/04/2023,00:58:32,-0.000,0.0,0.0,0.0
13/04/2023,00:59:33,-0.001,0.0,0.0,0.0
13/04/2023,01:00:32,0.000,0.0,0.0,0.0
13/04/2023,01:01:33,0.001,0.0,0.0,0.0
13/04/2023,01:02:33,0.000,0.0,0.0,0.0
13/04/2023,01:03:33,0.000,0.0,0.0,0.0
13/04/2023,01:04:33,0.001,0.0,0.0,0.0
13/04/2023,01:05:33,0.000,0.0,0.0,0.0
13/04/2023,01:06:33,0.000,0.0,0.0,0.0
13/04/2023,01:07:32,0.000,0.0,0.0,0.0
13/04/2023,01:08:33,0.000,0.0,0.0,0.0
13/04/2023,01:09:33,0.000,0.0,0.0,0.0
13/04/2023,01:10:34,0.000,0.0,0.0,0.0
13/04/2023,01:11:34,0.000,0.0,0.0,0.0
13/04/2023,01:12:32,0.001,0.0,0.0,0.0
13/04/2023,01:13:33,0.000,0.0,0.0,0.0
13/04/2023,01:14:33,0.000,0.0,0.0,0.0
13/04/2023,01:15:33,0.000,0.0,0.0,0.0
13/04/2023,01:16:33,0.001,0.0,0.0,0.0
13/04/2023,01:17:32,-0.000,0.0,0.0,0.0
13/04/2023,01:18:33,0.001,0.0,0.0,0.0
13/04/2023,01:19:33,0.001,0.0,0.0,0.0
13/04/2023,01:20:33,0.000,0.0,0.0,0.0
13/04/2023,01:21:33,0.000,0.0,0.0,0.0
13/04/2023,01:22:32,0.000,0.0,0.0,0.0
13/04/2023,01:23:32,0.001,0.0,0.0,0.0
13/04/2023,01:24:33,0.000,0.0,0.0,0.0
13/04/2023,01:25:33,0.000,0.0,0.0,0.0
13/04/2023,01:26:33,0.001,0.0,0.0,0.0
13/04/2023,01:27:33,-0.001,0.0,0.0,0.0
13/04/2023,01:28:33,0.000,0.0,0.0,0.0
13/04/2023,01:29:32,0.001,0.0,0.0,0.0
13/04/2023,01:30:32,0.000,0.0,0.0,0.0
13/04/2023,01:31:33,0.000,0.0,0.0,0.0
13/04/2023,01:32:33,0.000,0.0,0.0,0.0
13/04/2023,01:33:33,0.001,0.0,0.0,0.0
13/04/2023,01:34:34,0.000,0.0,0.0,0.0
13/04/2023,01:35:33,0.000,0.0,0.0,0.0
13/04/2023,01:36:32,0.001,0.0,0.0,0.0
13/04/2023,01:37:32,-0.001,0.0,0.0,0.0
13/04/2023,01:38:33,0.000,0.0,0.0,0.0
13/04/2023,01:39:32,0.000,0.0,0.0,0.0
13/04/2023,01:40:37,0.001,0.0,0.0,0.0
13/04/2023,01:41:33,0.000,0.0,0.0,0.0
13/04/2023,01:42:32,0.000,0.0,0.0,0.0
13/04/2023,01:43:32,0.001,0.0,0.0,0.0
13/04/2023,01:44:33,0.000,0.0,0.0,0.0
13/04/2023,01:45:33,0.001,0.0,0.0,0.0
13/04/2023,01:46:32,0.000,0.0,0.0,0.0
13/04/2023,01:47:32,0.000,0.0,0.0,0.0
13/04/2023,01:48:32,0.001,0.0,0.0,0.0
13/04/2023,01:49:33,0.001,0.0,0.0,0.0
13/04/2023,01:50:32,0.000,0.0,0.0,0.0
13/04/2023,01:51:33,0.000,0.0,0.0,0.0
13/04/2023,01:52:32,0.000,0.0,0.0,0.0
13/04/2023,01:53:32,0.000,0.0,0.0,0.0
13/04/2023,01:54:33,0.000,0.0,0.0,0.0
13/04/2023,01:55:33,0.000,0.0,0.0,0.0
13/04/2023,01:56:33,0.000,0.0,0.0,0.0
13/04/2023,01:57:33,0.000,0.0,0.0,0.0
13/04/2023,01:58:33,0.000,0.0,0.0,0.0
13/04/2023,01:59:33,0.000,0.0,0.0,0.0
13/04/2023,02:00:33,0.000,0.0,0.0,0.0
13/04/2023,02:01:32,0.000,0.0,0.0,0.0
13/04/2023,02:02:33,0.000,0.0,0.0,0.0
13/04/2023,02:03:32,0.001,0.0,0.0,0.0
13/04/2023,02:04:32,-0.000,0.0,0.0,0.0
13/04/2023,02:05:33,0.000,0.0,0.0,0.0
13/04/2023,02:06:32,0.000,0.0,0.0,0.0
13/04/2023,02:07:33,0.000,0.0,0.0,0.0
13/04/2023,02:08:32,-0.001,0.0,0.0,0.0
13/04/2023,02:09:32,0.000,0.0,0.0,0.0
13/04/2023,02:10:32,0.000,0.0,0.0,0.0
13/04/2023,02:11:33,0.001,0.0,0.0,0.0
13/04/2023,02:12:33,0.001,0.0,0.0,0.0
13/04/2023,02:13:33,0.000,0.0,0.0,0.0
13/04/2023,02:14:33,0.000,0.0,0.0,0.0
13/04/2023,02:15:33,0.000,0.0,0.0,0.0
13/04/2023,02:16:32,0.000,0.0,0.0,0.0
13/04/2023,02:17:34,0.000,0.0,0.0,0.0
13/04/2023,02:18:32,0.000,0.0,0.0,0.0
13/04/2023,02:19:33,0.001,0.0,0.0,0.0
13/04/2023,02:20:33,0.000,0.0,0.0,0.0
13/04/2023,02:21:32,0.000,0.0,0.0,0.0
13/04/2023,02:22:33,0.000,0.0,0.0,0.0
13/04/2023,02:23:33,0.000,0.0,0.0,0.0
13/04/2023,02:24:33,0.000,0.0,0.0,0.0
13/04/2023,02:25:34,0.000,0.0,0.0,0.0
13/04/2023,02:26:33,-0.000,0.0,0.0,0.0
13/04/2023,02:27:33,0.000,0.0,0.0,0.0
13/04/2023,02:28:33,0.001,0.0,0.0,0.0
13/04/2023,02:29:33,0.000,0.0,0.0,0.0
13/04/2023,02:30:33,-0.000,0.0,0.0,0.0
13/04/2023,02:31:33,0.000,0.0,0.0,0.0
13/04/2023,02:32:33,0.000,0.0,0.0,0.0
13/04/2023,02:33:32,-0.000,0.0,0.0,0.0
13/04/2023,02:34:34,0.001,0.0,0.0,0.0
13/04/2023,02:35:33,0.001,0.0,0.0,0.0
13/04/2023,02:36:32,0.000,0.0,0.0,0.0
13/04/2023,02:37:33,0.001,0.0,0.0,0.0
13/04/2023,02:38:33,0.000,0.0,0.0,0.0
13/04/2023,02:39:32,0.000,0.0,0.0,0.0
13/04/2023,02:40:33,0.000,0.0,0.0,0.0
13/04/2023,02:41:33,0.000,0.0,0.0,0.0
13/04/2023,02:42:33,0.000,0.0,0.0,0.0
13/04/2023,02:43:33,0.000,0.0,0.0,0.0
13/04/2023,02:44:32,0.000,0.0,0.0,0.0
13/04/2023,02:45:33,0.000,0.0,0.0,0.0
13/04/2023,02:46:33,0.000,0.0,0.0,0.0
13/04/2023,02:47:32,0.000,0.0,0.0,0.0
13/04/2023,02:48:33,0.000,0.0,0.0,0.0
13/04/2023,02:49:33,0.001,0.0,0.0,0.0
13/04/2023,02:50:33,0.001,0.0,0.0,0.0
13/04/2023,02:51:32,0.000,0.0,0.0,0.0
13/04/2023,02:52:33,0.000,0.0,0.0,0.0
13/04/2023,02:53:33,0.001,0.0,0.0,0.0
13/04/2023,02:54:33,0.001,0.0,0.0,0.0
13/04/2023,02:55:32,0.000,0.0,0.0,0.0
13/04/2023,02:56:33,0.001,0.0,0.0,0.0
13/04/2023,02:57:33,0.001,0.0,0.0,0.0
13/04/2023,02:58:32,0.001,0.0,0.0,0.0
13/04/2023,02:59:32,0.001,0.0,0.0,0.0
13/04/2023,03:00:33,0.001,0.0,0.0,0.0
13/04/2023,03:01:32,0.001,0.0,0.0,0.0
13/04/2023,03:02:33,0.001,0.0,0.0,0.0
13/04/2023,03:03:33,0.001,0.0,0.0,0.0
13/04/2023,03:04:33,0.001,0.0,0.0,0.0
13/04/2023,03:05:32,0.000,0.0,0.0,0.0
13/04/2023,03:06:32,0.001,0.0,0.0,0.0
13/04/2023,03:07:33,0.001,0.0,0.0,0.0
13/04/2023,03:08:33,0.001,0.0,0.0,0.0
13/04/2023,03:09:33,0.001,0.0,0.0,0.0
13/04/2023,03:10:33,0.001,0.0,0.0,0.0
13/04/2023,03:11:33,0.001,0.0,0.0,0.0
13/04/2023,03:12:33,0.001,0.0,0.0,0.0
13/04/2023,03:13:33,0.001,0.0,0.0,0.0
13/04/2023,03:14:33,0.001,0.0,0.0,0.0
13/04/2023,03:15:33,0.001,0.0,0.0,0.0
13/04/2023,03:16:36,0.001,0.0,0.0,0.0
13/04/2023,03:17:33,0.001,0.0,0.0,0.0
13/04/2023,03:18:33,0.001,0.0,0.0,0.0
13/04/2023,03:19:33,0.001,0.0,0.0,0.0
13/04/2023,03:20:32,0.001,0.0,0.0,0.0
13/04/2023,03:21:32,0.001,0.0,0.0,0.0
13/04/2023,03:22:33,0.001,0.0,0.0,0.0
13/04/2023,03:23:33,0.001,0.0,0.0,0.0
13/04/2023,03:24:33,0.001,0.0,0.0,0.0
13/04/2023,03:25:33,0.001,0.0,0.0,0.0
13/04/2023,03:26:33,0.001,0.0,0.0,0.0
13/04/2023,03:27:32,0.001,0.0,0.0,0.0
13/04/2023,03:28:33,0.001,0.0,0.0,0.0
13/04/2023,03:29:32,0.001,0.0,0.0,0.0
13/04/2023,03:30:33,0.001,0.0,0.0,0.0
13/04/2023,03:31:32,0.001,0.0,0.0,0.0
13/04/2023,03:32:33,0.001,0.0,0.0,0.0
13/04/2023,03:33:33,0.001,0.0,0.0,0.0
13/04/2023,03:34:33,0.001,0.0,0.0,0.0
13/04/2023,03:35:32,0.001,0.0,0.0,0.0
13/04/2023,03:36:32,0.001,0.0,0.0,0.0
13/04/2023,03:37:33,0.002,0.0,0.0,0.0
13/04/2023,03:38:33,0.001,0.0,0.0,0.0
13/04/2023,03:39:33,0.001,0.0,0.0,0.0
13/04/2023,03:40:33,0.001,0.0,0.0,0.0
13/04/2023,03:41:33,0.001,0.0,0.0,0.0
13/04/2023,03:42:32,0.001,0.0,0.0,0.0
13/04/2023,03:43:32,0.001,0.0,0.0,0.0
13/04/2023,03:44:33,0.001,0.0,0.0,0.0
13/04/2023,03:45:32,0.000,0.0,0.0,0.0
13/04/2023,03:46:33,0.001,0.0,0.0,0.0
13/04/2023,03:47:33,0.001,0.0,0.0,0.0
13/04/2023,03:48:33,0.001,0.0,0.0,0.0
13/04/2023,03:49:32,0.001,0.0,0.0,0.0
13/04/2023,03:50:32,0.001,0.0,0.0,0.0
13/04/2023,03:51:33,0.001,0.0,0.0,0.0
13/04/2023,03:52:33,0.001,0.0,0.0,0.0
13/04/2023,03:53:32,0.001,0.0,0.0,0.0
13/04/2023,03:54:33,0.001,0.0,0.0,0.0
13/04/2023,03:55:33,0.001,0.0,0.0,0.0
13/04/2023,03:56:33,0.001,0.0,0.0,0.0
13/04/2023,03:57:33,0.001,0.0,0.0,0.0
13/04/2023,03:58:33,0.001,0.0,0.0,0.0
13/04/2023,03:59:33,0.001,0.0,0.0,0.0
13/04/2023,04:00:33,0.001,0.0,0.0,0.0
13/04/2023,04:01:33,0.001,0.0,0.0,0.0
13/04/2023,04:02:33,0.000,0.0,0.0,0.0
13/04/2023,04:03:33,0.001,0.0,0.0,0.0
13/04/2023,04:04:32,0.001,0.0,0.0,0.0
13/04/2023,04:05:33,0.001,0.0,0.0,0.0
13/04/2023,04:06:33,0.001,0.0,0.0,0.0
13/04/2023,04:07:33,0.001,0.0,0.0,0.0
13/04/2023,04:08:32,0.001,0.0,0.0,0.0
13/04/2023,04:09:55,0.001,0.0,0.0,0.0
13/04/2023,04:11:34,0.001,0.0,0.0,0.0
13/04/2023,04:12:33,0.001,0.0,0.0,0.0
13/04/2023,04:13:34,0.001,0.0,0.0,0.0
13/04/2023,04:14:33,0.001,0.0,0.0,0.0
13/04/2023,04:15:33,0.001,0.0,0.0,0.0
13/04/2023,04:16:33,0.001,0.0,0.0,0.0
13/04/2023,04:17:32,0.001,0.0,0.0,0.0
13/04/2023,04:18:33,0.002,0.0,0.0,0.0
13/04/2023,04:19:33,0.001,0.0,0.0,0.0
13/04/2023,04:20:33,0.001,0.0,0.0,0.0
13/04/2023,04:21:33,0.001,0.0,0.0,0.0
13/04/2023,04:22:33,0.001,0.0,0.0,0.0
13/04/2023,04:23:33,0.001,0.0,0.0,0.0
13/04/2023,04:24:33,0.001,0.0,0.0,0.0
13/04/2023,04:25:32,0.001,0.0,0.0,0.0
13/04/2023,04:26:33,0.001,0.0,0.0,0.0
13/04/2023,04:27:33,0.001,0.0,0.0,0.0
13/04/2023,04:28:33,0.001,0.0,0.0,0.0
13/04/2023,04:29:33,0.001,0.0,0.0,0.0
13/04/2023,04:30:33,0.001,0.0,0.0,0.0
13/04/2023,04:31:33,0.001,0.0,0.0,0.0
13/04/2023,04:32:33,0.001,0.0,0.0,0.0
13/04/2023,04:33:33,0.002,0.0,0.0,0.0
13/04/2023,04:34:33,0.001,0.0,0.0,0.0
13/04/2023,04:35:33,0.001,0.0,0.0,0.0
13/04/2023,04:36:33,0.001,0.0,0.0,0.0
13/04/2023,04:37:33,0.001,0.0,0.0,0.0
13/04/2023,04:38:33,0.001,0.0,0.0,0.0
13/04/2023,04:39:33,0.001,0.0,0.0,0.0
13/04/2023,04:40:33,0.001,0.0,0.0,0.0
13/04/2023,04:41:32,0.001,0.0,0.0,0.0
13/04/2023,04:42:33,-0.000,0.0,0.0,0.0
13/04/2023,04:43:33,0.001,0.0,0.0,0.0
13/04/2023,04:44:33,0.001,0.0,0.0,0.0
13/04/2023,04:45:33,0.001,0.0,0.0,0.0
13/04/2023,04:46:33,0.001,0.0,0.0,0.0
13/04/2023,04:47:33,0.001,0.0,0.0,0.0
13/04/2023,04:48:33,0.001,0.0,0.0,0.0
13/04/2023,04:49:33,0.001,0.0,0.0,0.0
13/04/2023,04:50:33,0.001,0.0,0.0,0.0
13/04/2023,04:51:34,0.001,0.0,0.0,0.0
13/04/2023,04:52:34,0.001,0.0,0.0,0.0
13/04/2023,04:53:33,0.001,0.0,0.0,0.0
13/04/2023,04:54:32,0.001,0.0,0.0,0.0
13/04/2023,04:55:33,0.002,0.0,0.0,0.0
13/04/2023,04:56:33,0.002,0.0,0.0,0.0
13/04/2023,04:57:33,0.002,0.0,0.0,0.0
13/04/2023,04:58:33,0.001,0.0,0.0,0.0
13/04/2023,04:59:33,0.001,0.0,0.0,0.0
13/04/2023,05:00:33,0.001,0.0,0.0,0.0
13/04/2023,05:01:33,0.002,0.0,0.0,0.0
13/04/2023,05:02:33,0.002,0.0,0.0,0.0
13/04/2023,05:03:33,0.002,0.0,0.0,0.0
13/04/2023,05:04:33,0.003,0.0,0.0,0.0
13/04/2023,05:05:33,0.002,0.0,0.0,0.0
13/04/2023,05:06:33,0.003,0.0,0.0,0.0
13/04/2023,05:07:33,0.002,0.0,0.0,0.0
13/04/2023,05:08:33,0.002,0.0,0.0,0.0
13/04/2023,05:09:33,0.001,0.0,0.0,0.0
13/04/2023,05:10:33,0.002,0.0,0.0,0.0
13/04/2023,05:11:33,0.003,0.0,0.0,0.0
13/04/2023,05:12:32,0.003,0.0,0.0,0.0
13/04/2023,05:13:33,0.003,0.0,0.0,0.0
13/04/2023,05:14:36,0.004,0.0,0.0,0.0
13/04/2023,05:15:33,0.004,0.0,0.0,0.0
13/04/2023,05:16:33,0.004,0.0,0.0,0.0
13/04/2023,05:17:33,0.002,0.0,0.0,0.0
13/04/2023,05:18:33,0.005,0.0,0.0,0.0
13/04/2023,05:19:33,0.004,0.0,0.0,0.0
13/04/2023,05:20:33,0.004,0.0,0.0,0.0
13/04/2023,05:21:33,0.003,0.0,0.0,0.0
13/04/2023,05:22:33,0.004,0.0,0.0,0.0
13/04/2023,05:23:33,0.005,0.0,0.0,0.0
13/04/2023,05:24:33,0.005,0.0,0.0,0.0
13/04/2023,05:25:33,0.005,0.0,0.0,0.0
13/04/2023,05:26:33,0.005,0.0,0.0,0.0
13/04/2023,05:27:33,0.006,0.0,0.0,0.0
13/04/2023,05:28:33,0.006,0.0,0.0,0.0
13/04/2023,05:29:33,0.006,0.0,0.0,0.0
13/04/2023,05:30:33,0.007,0.0,0.0,0.0
13/04/2023,05:31:33,0.007,0.0,0.0,0.0
13/04/2023,05:32:33,0.006,0.0,0.0,0.0
13/04/2023,05:33:33,0.008,0.0,0.001,0.001
13/04/2023,05:34:33,0.007,0.0,0.001,0.0
13/04/2023,05:35:33,0.008,0.0,0.001,0.0
13/04/2023,05:36:33,0.009,0.0,0.001,0.0
13/04/2023,05:37:33,0.009,0.0,0.001,0.0
13/04/2023,05:38:33,0.009,0.0,0.001,0.0
13/04/2023,05:39:33,0.009,0.0,0.001,0.0
13/04/2023,05:40:33,0.010,0.0,0.002,0.001
13/04/2023,05:41:33,0.011,0.0,0.002,0.0
13/04/2023,05:42:32,0.011,0.0,0.002,0.0
13/04/2023,05:43:33,0.012,0.0,0.002,0.0
13/04/2023,05:44:33,0.012,0.0,0.002,0.0
13/04/2023,05:45:33,0.013,0.0,0.003,0.001
13/04/2023,05:46:33,0.013,0.0,0.003,0.0
13/04/2023,05:47:33,0.013,0.0,0.003,0.0
13/04/2023,05:48:33,0.014,0.0,0.003,0.0
13/04/2023,05:49:33,0.015,0.0,0.003,0.0
13/04/2023,05:50:33,0.015,0.0,0.004,0.001
13/04/2023,05:51:33,0.015,0.0,0.004,0.0
13/04/2023,05:52:33,0.016,0.0,0.004,0.0
13/04/2023,05:53:33,0.017,0.0,0.004,0.0
13/04/2023,05:54:33,0.016,0.0,0.005,0.001
13/04/2023,05:55:32,0.019,0.0,0.005,0.0
13/04/2023,05:56:33,0.018,0.0,0.005,0.0
13/04/2023,05:57:33,0.020,0.0,0.006,0.001
13/04/2023,05:58:33,0.020,0.0,0.006,0.0
13/04/2023,05:59:33,0.020,0.0,0.006,0.0
13/04/2023,06:00:33,0.022,0.0,0.007,0.001
13/04/2023,06:01:33,0.022,0.0,0.007,0.0
13/04/2023,06:02:33,0.023,0.0,0.007,0.0
13/04/2023,06:03:33,0.023,0.0,0.008,0.001
13/04/2023,06:04:33,0.024,0.0,0.008,0.0
13/04/2023,06:05:33,0.024,0.0,0.009,0.001
13/04/2023,06:06:33,0.025,0.0,0.009,0.0
13/04/2023,06:07:33,0.026,0.0,0.009,0.0
13/04/2023,06:08:33,0.026,0.0,0.01,0.001
13/04/2023,06:09:33,0.028,0.0,0.01,0.0
13/04/2023,06:10:33,0.028,0.0,0.011,0.001
13/04/2023,06:11:33,0.030,0.0,0.011,0.0
13/04/2023,06:12:33,0.030,0.0,0.012,0.001
13/04/2023,06:13:34,0.032,0.0,0.012,0.0
13/04/2023,06:14:33,0.032,0.0,0.013,0.001
13/04/2023,06:15:33,0.032,0.0,0.013,0.0
13/04/2023,06:16:33,0.032,0.0,0.014,0.001
13/04/2023,06:17:33,0.034,0.0,0.014,0.0
13/04/2023,06:18:33,0.036,0.0,0.015,0.001
13/04/2023,06:19:33,0.036,0.0,0.016,0.001
13/04/2023,06:20:33,0.037,0.0,0.016,0.0
13/04/2023,06:21:33,0.038,0.0,0.017,0.001
13/04/2023,06:22:33,0.039,0.0,0.017,0.0
13/04/2023,06:23:33,0.041,0.0,0.018,0.001
13/04/2023,06:24:33,0.043,0.0,0.019,0.001
13/04/2023,06:25:33,0.043,0.0,0.02,0.001
13/04/2023,06:26:33,0.045,0.0,0.02,0.0
13/04/2023,06:27:33,0.045,0.0,0.021,0.001
13/04/2023,06:28:33,0.046,0.0,0.022,0.001
13/04/2023,06:29:33,0.047,0.0,0.023,0.001
13/04/2023,06:30:33,0.049,0.0,0.023,0.0
13/04/2023,06:31:33,0.049,0.0,0.024,0.001
13/04/2023,06:32:33,0.051,0.0,0.025,0.001
13/04/2023,06:33:33,0.052,0.0,0.026,0.001
13/04/2023,06:34:33,0.052,0.0,0.027,0.001
13/04/2023,06:35:33,0.055,0.0,0.028,0.001
13/04/2023,06:36:33,0.056,0.0,0.029,0.001
13/04/2023,06:37:33,0.057,0.0,0.03,0.001
13/04/2023,06:38:33,0.059,0.0,0.03,0.0
13/04/2023,06:39:33,0.060,0.0,0.031,0.001
13/04/2023,06:40:33,0.062,0.0,0.032,0.001
13/04/2023,06:41:33,0.063,0.0,0.034,0.002
13/04/2023,06:42:34,0.065,0.0,0.035,0.001
13/04/2023,06:43:33,0.067,0.0,0.036,0.001
13/04/2023,06:44:33,0.068,0.0,0.037,0.001
13/04/2023,06:45:33,0.070,0.0,0.038,0.001
13/04/2023,06:46:33,0.071,0.0,0.039,0.001
13/04/2023,06:47:33,0.072,0.0,0.04,0.001
13/04/2023,06:48:34,0.074,0.0,0.042,0.002
13/04/2023,06:49:33,0.076,0.0,0.043,0.001
13/04/2023,06:50:33,0.077,0.0,0.044,0.001
13/04/2023,06:51:33,0.079,0.0,0.045,0.001
13/04/2023,06:52:33,0.081,0.0,0.047,0.002
13/04/2023,06:53:33,0.084,0.0,0.048,0.001
13/04/2023,06:54:33,0.084,0.0,0.049,0.001
13/04/2023,06:55:34,0.087,0.0,0.051,0.002
13/04/2023,06:56:33,0.089,0.0,0.052,0.001
13/04/2023,06:57:33,0.090,0.0,0.054,0.002
13/04/2023,06:58:33,0.092,0.0,0.055,0.001
13/04/2023,06:59:33,0.094,0.0,0.057,0.002
13/04/2023,07:00:33,0.096,0.0,0.058,0.001
13/04/2023,07:01:33,0.098,0.0,0.06,0.002
13/04/2023,07:02:33,0.099,0.0,0.062,0.002
13/04/2023,07:03:33,0.102,0.0,0.063,0.001
13/04/2023,07:04:34,0.104,0.0,0.065,0.002
13/04/2023,07:05:33,0.106,0.0,0.067,0.002
13/04/2023,07:06:33,0.108,0.0,0.069,0.002
13/04/2023,07:07:33,0.110,0.0,0.07,0.001
13/04/2023,07:08:33,0.112,0.0,0.072,0.002
13/04/2023,07:09:33,0.115,0.0,0.074,0.002
13/04/2023,07:10:33,0.117,0.0,0.076,0.002
13/04/2023,07:11:33,0.119,0.0,0.078,0.002
13/04/2023,07:12:33,0.121,0.0,0.08,0.002
13/04/2023,07:13:33,0.123,0.0,0.082,0.002
13/04/2023,07:14:34,0.125,0.0,0.084,0.002
13/04/2023,07:15:33,0.127,0.0,0.086,0.002
13/04/2023,07:16:33,0.130,0.0,0.088,0.002
13/04/2023,07:17:33,0.135,0.0,0.091,0.003
13/04/2023,07:18:33,0.136,0.0,0.093,0.002
13/04/2023,07:19:33,0.139,0.0,0.095,0.002
13/04/2023,07:20:34,0.141,0.0,0.098,0.003
13/04/2023,07:21:33,0.143,0.0,0.1,0.002
13/04/2023,07:22:33,0.147,0.0,0.102,0.002
13/04/2023,07:23:33,0.149,0.0,0.105,0.003
13/04/2023,07:24:34,0.151,0.0,0.107,0.002
13/04/2023,07:25:34,0.154,0.0,0.11,0.003
13/04/2023,07:26:33,0.157,0.0,0.112,0.002
13/04/2023,07:27:33,0.160,0.0,0.115,0.003
13/04/2023,07:28:33,0.163,0.0,0.118,0.003
13/04/2023,07:29:33,0.165,0.0,0.121,0.003
13/04/2023,07:30:33,0.168,0.0,0.123,0.002
13/04/2023,07:31:33,0.171,0.0,0.126,0.003
13/04/2023,07:32:33,0.174,0.0,0.129,0.003
13/04/2023,07:33:33,0.177,0.0,0.132,0.003
13/04/2023,07:34:33,0.180,0.0,0.135,0.003
13/04/2023,07:35:33,0.182,0.0,0.138,0.003
13/04/2023,07:36:33,0.185,0.0,0.141,0.003
13/04/2023,07:37:33,0.188,0.0,0.144,0.003
13/04/2023,07:38:33,0.191,0.0,0.147,0.003
13/04/2023,07:39:33,0.196,0.0,0.15,0.003
13/04/2023,07:40:33,0.198,0.0,0.154,0.004
13/04/2023,07:41:33,0.202,0.0,0.157,0.003
13/04/2023,07:42:33,0.205,0.0,0.16,0.003
13/04/2023,07:43:34,0.208,0.0,0.164,0.004
13/04/2023,07:44:33,0.211,0.0,0.167,0.003
13/04/2023,07:45:33,0.214,0.0,0.171,0.004
13/04/2023,07:46:33,0.218,1.0,0.174,0.003
13/04/2023,07:47:33,0.221,1.0,0.178,0.004
13/04/2023,07:48:33,0.224,1.0,0.182,0.004
13/04/2023,07:49:33,0.228,1.0,0.186,0.004
13/04/2023,07:50:33,0.232,1.0,0.19,0.004
13/04/2023,07:51:33,0.235,1.0,0.193,0.003
13/04/2023,07:52:34,0.238,1.0,0.197,0.004
13/04/2023,07:53:34,0.242,1.0,0.201,0.004
13/04/2023,07:54:33,0.247,1.0,0.205,0.004
13/04/2023,07:55:33,0.250,1.0,0.209,0.004
13/04/2023,07:56:33,0.253,1.0,0.214,0.005
13/04/2023,07:57:33,0.258,1.0,0.218,0.004
13/04/2023,07:58:33,0.262,1.0,0.222,0.004
13/04/2023,07:59:33,0.265,1.0,0.227,0.005
13/04/2023,08:00:33,0.269,1.0,0.231,0.004
13/04/2023,08:01:33,0.271,1.0,0.236,0.005
13/04/2023,08:02:33,0.276,1.0,0.24,0.004
13/04/2023,08:03:34,0.281,1.0,0.245,0.005
13/04/2023,08:04:34,0.286,1.0,0.25,0.005
13/04/2023,08:05:33,0.289,1.0,0.254,0.004
13/04/2023,08:06:33,0.291,1.0,0.259,0.005
13/04/2023,08:07:33,0.296,1.0,0.264,0.005
13/04/2023,08:08:33,0.301,1.0,0.269,0.005
13/04/2023,08:09:34,0.306,1.0,0.274,0.005
13/04/2023,08:10:34,0.310,1.0,0.279,0.005
13/04/2023,08:11:33,0.312,1.0,0.284,0.005
13/04/2023,08:12:33,0.317,1.0,0.29,0.006
13/04/2023,08:13:34,0.322,1.0,0.295,0.005
13/04/2023,08:14:33,0.326,1.0,0.3,0.005
13/04/2023,08:15:33,0.330,1.0,0.306,0.006
13/04/2023,08:16:33,0.334,1.0,0.311,0.005
13/04/2023,08:17:33,0.340,1.0,0.317,0.006
13/04/2023,08:18:33,0.344,1.0,0.323,0.006
13/04/2023,08:19:33,0.347,1.0,0.329,0.006
13/04/2023,08:20:33,0.350,1.0,0.334,0.005
13/04/2023,08:21:34,0.356,1.0,0.34,0.006
13/04/2023,08:22:34,0.361,1.0,0.346,0.006
13/04/2023,08:23:33,0.366,1.0,0.352,0.006
13/04/2023,08:24:33,0.371,1.0,0.358,0.006
13/04/2023,08:25:34,0.374,1.0,0.365,0.007
13/04/2023,08:26:34,0.379,1.0,0.371,0.006
13/04/2023,08:27:33,0.384,1.0,0.377,0.006
13/04/2023,08:28:34,0.388,1.0,0.384,0.007
13/04/2023,08:29:34,0.393,1.0,0.39,0.006
13/04/2023,08:30:34,0.397,1.0,0.397,0.007
13/04/2023,08:31:33,0.403,1.0,0.403,0.006
13/04/2023,08:32:33,0.407,1.0,0.41,0.007
13/04/2023,08:33:33,0.412,1.0,0.417,0.007
13/04/2023,08:34:33,0.417,1.0,0.424,0.007
13/04/2023,08:35:33,0.423,1.0,0.431,0.007
13/04/2023,08:36:34,0.428,1.0,0.438,0.007
13/04/2023,08:37:34,0.433,1.0,0.445,0.007
13/04/2023,08:38:33,0.436,1.0,0.452,0.007
13/04/2023,08:39:33,0.441,1.0,0.46,0.008
13/04/2023,08:40:33,0.446,1.0,0.467,0.007
13/04/2023,08:41:33,0.450,1.0,0.475,0.008
13/04/2023,08:42:33,0.454,1.0,0.482,0.007
13/04/2023,08:43:34,0.459,1.0,0.49,0.008
13/04/2023,08:44:34,0.465,1.0,0.497,0.007
13/04/2023,08:45:34,0.467,1.0,0.505,0.008
13/04/2023,08:46:33,0.474,1.0,0.513,0.008
13/04/2023,08:47:33,0.479,1.0,0.521,0.008
13/04/2023,08:48:34,0.485,1.0,0.529,0.008
13/04/2023,08:49:34,0.489,1.0,0.537,0.008
13/04/2023,08:50:33,0.494,1.0,0.545,0.008
13/04/2023,08:51:33,0.498,1.0,0.554,0.009
13/04/2023,08:52:33,0.502,1.0,0.562,0.008
13/04/2023,08:53:33,0.507,1.0,0.57,0.008
13/04/2023,08:54:34,0.513,1.0,0.579,0.009
13/04/2023,08:55:34,0.519,1.0,0.587,0.008
13/04/2023,08:56:34,0.521,1.0,0.596,0.009
13/04/2023,08:57:33,0.529,1.0,0.605,0.009
13/04/2023,08:58:33,0.533,1.0,0.613,0.008
13/04/2023,08:59:33,0.538,1.0,0.623,0.01
13/04/2023,09:00:33,0.542,1.0,0.632,0.009
13/04/2023,09:01:34,0.547,1.0,0.641,0.009
13/04/2023,09:02:34,0.553,1.0,0.65,0.009
13/04/2023,09:03:33,0.557,1.0,0.659,0.009
13/04/2023,09:04:33,0.562,1.0,0.668,0.009
13/04/2023,09:05:33,0.567,1.0,0.678,0.01
13/04/2023,09:06:33,0.571,1.0,0.687,0.009
13/04/2023,09:07:34,0.574,1.0,0.697,0.01
13/04/2023,09:08:34,0.581,1.0,0.707,0.01
13/04/2023,09:09:33,0.587,1.0,0.716,0.009
13/04/2023,09:10:33,0.591,1.0,0.726,0.01
13/04/2023,09:11:34,0.598,1.0,0.736,0.01
13/04/2023,09:12:33,0.604,1.0,0.746,0.01
13/04/2023,09:13:34,0.608,1.0,0.756,0.01
13/04/2023,09:14:34,0.614,1.0,0.766,0.01
13/04/2023,09:15:33,0.621,1.0,0.776,0.01
13/04/2023,09:16:33,0.628,1.0,0.787,0.011
13/04/2023,09:17:33,0.629,1.0,0.797,0.01
13/04/2023,09:18:34,0.636,1.0,0.808,0.011
13/04/2023,09:19:33,0.642,1.0,0.819,0.011
13/04/2023,09:20:34,0.648,1.0,0.829,0.01
13/04/2023,09:21:34,0.654,2.0,0.84,0.011
13/04/2023,09:22:33,0.657,2.0,0.851,0.011
13/04/2023,09:23:33,0.662,2.0,0.862,0.011
13/04/2023,09:24:33,0.667,2.0,0.873,0.011
13/04/2023,09:25:33,0.672,2.0,0.884,0.011
13/04/2023,09:26:34,0.676,2.0,0.896,0.012
13/04/2023,09:27:33,0.682,2.0,0.907,0.011
13/04/2023,09:28:34,0.688,2.0,0.918,0.011
13/04/2023,09:29:33,0.693,2.0,0.929,0.011
13/04/2023,09:30:33,0.699,2.0,0.941,0.012
13/04/2023,09:31:33,0.701,2.0,0.953,0.012
13/04/2023,09:32:34,0.714,2.0,0.965,0.012
13/04/2023,09:33:34,0.717,2.0,0.977,0.012
13/04/2023,09:34:34,0.723,2.0,0.989,0.012
13/04/2023,09:35:33,0.727,2.0,1.001,0.012
13/04/2023,09:36:33,0.733,2.0,1.013,0.012
13/04/2023,09:37:33,0.740,2.0,1.025,0.012
13/04/2023,09:38:33,0.747,2.0,1.038,0.013
13/04/2023,09:39:33,0.756,2.0,1.05,0.012
13/04/2023,09:40:33,0.763,2.0,1.063,0.013
13/04/2023,09:41:34,0.761,2.0,1.075,0.012
13/04/2023,09:42:34,0.770,2.0,1.088,0.013
13/04/2023,09:43:34,0.775,2.0,1.101,0.013
13/04/2023,09:44:33,0.781,2.0,1.114,0.013
13/04/2023,09:45:33,0.786,2.0,1.127,0.013
13/04/2023,09:46:34,0.791,2.0,1.14,0.013
13/04/2023,09:47:33,0.803,2.0,1.153,0.013
13/04/2023,09:48:33,0.816,2.0,1.167,0.014
13/04/2023,09:49:33,0.823,2.0,1.181,0.014
13/04/2023,09:50:33,0.827,2.0,1.195,0.014
13/04/2023,09:51:34,0.832,2.0,1.208,0.013
13/04/2023,09:52:33,0.835,2.0,1.219,0.011
13/04/2023,09:53:33,0.839,2.0,1.233,0.014
13/04/2023,09:54:33,0.850,2.0,1.247,0.014
13/04/2023,09:55:34,0.852,2.0,1.262,0.015
13/04/2023,09:56:34,0.855,2.0,1.276,0.014
13/04/2023,09:57:33,0.866,2.0,1.29,0.014
13/04/2023,09:58:33,0.872,2.0,1.305,0.015
13/04/2023,09:59:33,0.879,2.0,1.319,0.014
13/04/2023,10:00:33,0.881,2.0,1.334,0.015
13/04/2023,10:01:34,0.878,2.0,1.348,0.014
13/04/2023,10:02:33,0.885,2.0,1.363,0.015